Time,TemperatureF,DewpointF,PressureIn,WindDirection,WindDirectionDegrees,WindSpeedMPH,WindSpeedGustMPH,Humidity,HourlyPrecipIn,Conditions,Clouds,dailyrainin,SoftwareType,DateUTC
2013-03-21 00:08:00,29.3,28.8,29.67,NW,315,6.8,-999.0,98,-99.99,,,0.00,Acu-Link.com,2013-03-21 04:08:00,
2013-03-21 00:23:00,28.2,27.7,29.67,North,0,5.8,-999.0,98,-99.99,,,0.00,Acu-Link.com,2013-03-21 04:23:00,
2013-03-21 00:38:00,28.2,27.7,29.66,WNW,292,6.8,-999.0,98,-99.99,,,0.00,Acu-Link.com,2013-03-21 04:38:00,
2013-03-21 00:54:00,28.2,27.7,29.65,NW,315,7.3,-999.0,98,-99.99,,,0.00,Acu-Link.com,2013-03-21 04:54:00,
2013-03-21 01:09:00,27.0,26.5,29.66,NNW,337,7.3,-999.0,98,-99.99,,,0.00,Acu-Link.com,2013-03-21 05:09:00,
2013-03-21 01:24:00,26.6,26.1,29.64,NNW,337,5.8,-999.0,98,-99.99,,,0.00,Acu-Link.com,2013-03-21 05:24:00,
2013-03-21 01:39:00,26.2,25.7,29.63,NNW,337,5.8,-999.0,98,-99.99,,,0.00,Acu-Link.com,2013-03-21 05:39:00,
2013-03-21 01:54:00,26.1,25.6,29.61,NNW,337,8.9,-999.0,98,-99.99,,,0.00,Acu-Link.com,2013-03-21 05:54:00,
2013-03-21 02:09:00,25.9,25.4,29.60,NNW,337,6.3,-999.0,98,-99.99,,,0.00,Acu-Link.com,2013-03-21 06:09:00,
2013-03-21 02:24:00,25.9,25.4,29.59,NW,315,5.8,-999.0,98,-99.99,,,0.00,Acu-Link.com,2013-03-21 06:24:00,
2013-03-21 02:39:00,25.5,25.0,29.59,NW,315,4.7,-999.0,98,-99.99,,,0.00,Acu-Link.com,2013-03-21 06:39:00,
2013-03-21 02:54:00,25.3,24.8,29.59,NNW,337,5.8,-999.0,98,-99.99,,,0.00,Acu-Link.com,2013-03-21 06:54:00,
2013-03-21 03:09:00,24.8,24.3,29.59,NNW,337,7.3,-999.0,98,-99.99,,,0.00,Acu-Link.com,2013-03-21 07:09:00,
2013-03-21 03:24:00,24.6,24.1,29.57,NW,315,6.3,-999.0,98,-99.99,,,0.00,Acu-Link.com,2013-03-21 07:24:00,
2013-03-21 03:40:00,24.3,23.8,29.57,NW,315,5.3,-999.0,98,-99.99,,,0.00,Acu-Link.com,2013-03-21 07:40:00,
2013-03-21 03:55:00,23.9,23.4,29.57,WNW,292,4.7,-999.0,98,-99.99,,,0.00,Acu-Link.com,2013-03-21 07:55:00,
2013-03-21 04:10:00,23.4,22.9,29.57,NW,315,4.7,-999.0,98,-99.99,,,0.00,Acu-Link.com,2013-03-21 08:10:00,
2013-03-21 04:25:00,23.0,22.5,29.55,NW,315,6.3,-999.0,98,-99.99,,,0.00,Acu-Link.com,2013-03-21 08:25:00,
2013-03-21 04:40:00,22.3,21.8,29.56,NW,315,4.7,-999.0,98,-99.99,,,0.00,Acu-Link.com,2013-03-21 08:40:00,
2013-03-21 04:55:00,21.7,21.2,29.58,NW,315,5.8,-999.0,98,-99.99,,,0.00,Acu-Link.com,2013-03-21 08:55:00,
2013-03-21 05:10:00,21.6,21.1,29.56,WNW,292,5.8,-999.0,98,-99.99,,,0.00,Acu-Link.com,2013-03-21 09:10:00,
2013-03-21 05:25:00,20.8,20.3,29.58,NNW,337,5.8,-999.0,98,-99.99,,,0.00,Acu-Link.com,2013-03-21 09:25:00,
2013-03-21 05:40:00,20.5,20.0,29.59,NNW,337,4.7,-999.0,98,-99.99,,,0.00,Acu-Link.com,2013-03-21 09:40:00,
2013-03-21 05:55:00,19.6,19.1,29.59,NW,315,4.7,-999.0,98,-99.99,,,0.00,Acu-Link.com,2013-03-21 09:55:00,
2013-03-21 06:11:00,19.4,18.9,29.59,NNW,337,4.2,-999.0,98,-99.99,,,0.00,Acu-Link.com,2013-03-21 10:11:00,
2013-03-21 06:26:00,19.2,18.7,29.60,NW,315,4.2,-999.0,98,-99.99,,,0.00,Acu-Link.com,2013-03-21 10:26:00,
2013-03-21 06:41:00,18.9,18.4,29.61,NNW,337,5.8,-999.0,98,-99.99,,,0.00,Acu-Link.com,2013-03-21 10:41:00,
2013-03-21 06:56:00,18.5,18.0,29.60,NNW,337,8.9,-999.0,98,-99.99,,,0.00,Acu-Link.com,2013-03-21 10:56:00,
2013-03-21 07:11:00,18.3,17.8,29.58,NNW,337,7.8,-999.0,98,-99.99,,,0.00,Acu-Link.com,2013-03-21 11:11:00,
2013-03-21 07:26:00,18.1,17.6,29.61,NW,315,6.3,-999.0,98,-99.99,,,0.00,Acu-Link.com,2013-03-21 11:26:00,
2013-03-21 07:41:00,18.3,17.8,29.61,NNW,337,6.8,-999.0,98,-99.99,,,0.00,Acu-Link.com,2013-03-21 11:41:00,
2013-03-21 08:12:00,18.9,18.4,29.62,NNW,337,6.3,-999.0,98,-99.99,,,0.00,Acu-Link.com,2013-03-21 12:12:00,
2013-03-21 08:27:00,19.6,19.1,29.62,NW,315,6.8,-999.0,98,-99.99,,,0.00,Acu-Link.com,2013-03-21 12:27:00,
2013-03-21 08:58:00,20.1,19.6,29.62,NNW,337,2.7,-999.0,98,-99.99,,,0.00,Acu-Link.com,2013-03-21 12:58:00,
2013-03-21 09:13:00,20.8,20.3,29.63,NNW,337,3.7,-999.0,98,-99.99,,,0.00,Acu-Link.com,2013-03-21 13:13:00,
2013-03-21 09:29:00,22.5,22.0,29.63,North,0,5.3,-999.0,98,-99.99,,,0.00,Acu-Link.com,2013-03-21 13:29:00,
2013-03-21 09:44:00,23.2,22.7,29.64,NW,315,5.8,-999.0,98,-99.99,,,0.00,Acu-Link.com,2013-03-21 13:44:00,
2013-03-21 09:59:00,24.6,23.9,29.65,WNW,292,5.3,-999.0,97,-99.99,,,0.00,Acu-Link.com,2013-03-21 13:59:00,
2013-03-21 10:14:00,25.0,21.4,29.65,NW,315,3.7,-999.0,86,-99.99,,,0.00,Acu-Link.com,2013-03-21 14:14:00,
2013-03-21 10:29:00,26.6,23.3,29.66,West,270,2.2,-999.0,87,-99.99,,,0.00,Acu-Link.com,2013-03-21 14:29:00,
2013-03-21 10:45:00,25.9,20.0,29.65,WNW,292,1.7,-999.0,78,-99.99,,,0.00,Acu-Link.com,2013-03-21 14:45:00,
2013-03-21 11:00:00,27.7,20.8,29.65,North,0,1.7,-999.0,75,-99.99,,,0.00,Acu-Link.com,2013-03-21 15:00:00,
2013-03-21 11:15:00,27.3,20.8,29.65,NNE,22,2.2,-999.0,76,-99.99,,,0.00,Acu-Link.com,2013-03-21 15:15:00,
2013-03-21 11:30:00,28.4,21.2,29.65,West,270,6.3,-999.0,74,-99.99,,,0.00,Acu-Link.com,2013-03-21 15:30:00,
2013-03-21 11:45:00,30.7,23.1,29.66,ESE,112,4.2,-999.0,73,-99.99,,,0.00,Acu-Link.com,2013-03-21 15:45:00,
2013-03-21 12:00:00,30.9,23.0,29.65,ENE,67,2.7,-999.0,72,-99.99,,,0.00,Acu-Link.com,2013-03-21 16:00:00,
2013-03-21 12:15:00,29.7,22.4,29.65,WNW,292,4.2,-999.0,74,-99.99,,,0.02,Acu-Link.com,2013-03-21 16:15:00,
2013-03-21 12:31:00,30.7,23.4,29.65,South,180,2.7,-999.0,74,-99.99,,,0.03,Acu-Link.com,2013-03-21 16:31:00,
2013-03-21 12:46:00,32.7,24.0,29.64,NW,315,5.8,-999.0,70,-99.99,,,0.04,Acu-Link.com,2013-03-21 16:46:00,
2013-03-21 13:01:00,32.9,24.2,29.65,NNE,22,5.8,-999.0,70,-99.99,,,0.05,Acu-Link.com,2013-03-21 17:01:00,
2013-03-21 13:47:00,35.6,24.3,29.64,WNW,292,6.3,-999.0,63,-99.99,,,0.06,Acu-Link.com,2013-03-21 17:47:00,
2013-03-21 14:02:00,35.8,22.1,29.63,WSW,247,3.7,-999.0,57,-99.99,,,0.06,Acu-Link.com,2013-03-21 18:02:00,
2013-03-21 14:17:00,37.4,22.3,29.63,SW,225,3.7,-999.0,54,-99.99,,,0.06,Acu-Link.com,2013-03-21 18:17:00,
2013-03-21 14:32:00,37.6,22.0,29.61,ESE,112,2.2,-999.0,53,-99.99,,,0.06,Acu-Link.com,2013-03-21 18:32:00,
2013-03-21 14:48:00,37.0,21.0,29.62,West,270,4.7,-999.0,52,-99.99,,,0.06,Acu-Link.com,2013-03-21 18:48:00,
2013-03-21 15:03:00,38.7,22.6,29.61,NNW,337,6.3,-999.0,52,-99.99,,,0.06,Acu-Link.com,2013-03-21 19:03:00,
2013-03-21 15:18:00,38.7,22.6,29.62,WNW,292,8.9,-999.0,52,-99.99,,,0.06,Acu-Link.com,2013-03-21 19:18:00,
2013-03-21 15:33:00,38.1,20.7,29.62,WNW,292,4.7,-999.0,49,-99.99,,,0.06,Acu-Link.com,2013-03-21 19:33:00,
2013-03-21 15:48:00,37.4,20.5,29.62,WNW,292,6.3,-999.0,50,-99.99,,,0.06,Acu-Link.com,2013-03-21 19:48:00,
2013-03-21 16:03:00,37.4,20.0,29.62,NNW,337,3.7,-999.0,49,-99.99,,,0.06,Acu-Link.com,2013-03-21 20:03:00,
2013-03-21 16:18:00,37.9,19.5,29.63,WNW,292,3.7,-999.0,47,-99.99,,,0.06,Acu-Link.com,2013-03-21 20:18:00,
2013-03-21 16:34:00,36.5,18.2,29.63,ESE,112,4.2,-999.0,47,-99.99,,,0.06,Acu-Link.com,2013-03-21 20:34:00,
2013-03-21 16:49:00,37.0,18.7,29.64,NNW,337,6.8,-999.0,47,-99.99,,,0.06,Acu-Link.com,2013-03-21 20:49:00,
2013-03-21 17:04:00,36.1,18.3,29.64,NW,315,5.3,-999.0,48,-99.99,,,0.06,Acu-Link.com,2013-03-21 21:04:00,
2013-03-21 17:19:00,35.4,17.2,29.63,WNW,292,4.2,-999.0,47,-99.99,,,0.06,Acu-Link.com,2013-03-21 21:19:00,
2013-03-21 17:34:00,34.5,16.9,29.65,SE,135,2.2,-999.0,48,-99.99,,,0.06,Acu-Link.com,2013-03-21 21:34:00,
2013-03-21 17:50:00,36.3,18.0,29.64,NE,45,4.7,-999.0,47,-99.99,,,0.06,Acu-Link.com,2013-03-21 21:50:00,
2013-03-21 18:05:00,34.3,17.1,29.64,East,90,5.3,-999.0,49,-99.99,,,0.06,Acu-Link.com,2013-03-21 22:05:00,
2013-03-21 18:20:00,33.3,16.7,29.65,East,90,4.2,-999.0,50,-99.99,,,0.06,Acu-Link.com,2013-03-21 22:20:00,
2013-03-21 18:35:00,33.4,17.2,29.66,NNW,337,8.9,-999.0,51,-99.99,,,0.06,Acu-Link.com,2013-03-21 22:35:00,
2013-03-21 18:50:00,31.8,16.2,29.67,NW,315,4.7,-999.0,52,-99.99,,,0.06,Acu-Link.com,2013-03-21 22:50:00,
2013-03-21 19:06:00,30.9,16.2,29.66,WNW,292,2.2,-999.0,54,-99.99,,,0.06,Acu-Link.com,2013-03-21 23:06:00,
2013-03-21 19:21:00,30.4,16.6,29.68,NNW,337,3.2,-999.0,56,-99.99,,,0.06,Acu-Link.com,2013-03-21 23:21:00,
2013-03-21 19:51:00,28.4,15.9,29.68,NW,315,6.3,-999.0,59,-99.99,,,0.06,Acu-Link.com,2013-03-21 23:51:00,
2013-03-21 20:22:00,27.9,15.1,29.68,NNW,337,1.7,-999.0,58,-99.99,,,0.06,Acu-Link.com,2013-03-22 00:22:00,
2013-03-21 20:37:00,27.3,14.9,29.69,West,270,4.2,-999.0,59,-99.99,,,0.06,Acu-Link.com,2013-03-22 00:37:00,
2013-03-21 20:52:00,26.8,15.6,29.70,NNW,337,3.2,-999.0,62,-99.99,,,0.06,Acu-Link.com,2013-03-22 00:52:00,
2013-03-21 21:07:00,26.8,15.6,29.70,NW,315,5.8,-999.0,62,-99.99,,,0.06,Acu-Link.com,2013-03-22 01:07:00,
2013-03-21 21:23:00,26.8,17.0,29.69,NNW,337,7.3,-999.0,66,-99.99,,,0.06,Acu-Link.com,2013-03-22 01:23:00,
2013-03-21 21:38:00,26.6,16.4,29.70,West,270,4.2,-999.0,65,-99.99,,,0.06,Acu-Link.com,2013-03-22 01:38:00,
2013-03-21 21:53:00,26.2,15.7,29.72,NE,45,4.7,-999.0,64,-99.99,,,0.06,Acu-Link.com,2013-03-22 01:53:00,
2013-03-21 22:08:00,26.1,16.3,29.72,NNW,337,7.8,-999.0,66,-99.99,,,0.06,Acu-Link.com,2013-03-22 02:08:00,
2013-03-21 22:24:00,25.9,17.2,29.71,NNW,337,4.2,-999.0,69,-99.99,,,0.06,Acu-Link.com,2013-03-22 02:24:00,
2013-03-21 22:39:00,25.5,16.8,29.72,NNW,337,6.8,-999.0,69,-99.99,,,0.06,Acu-Link.com,2013-03-22 02:39:00,
2013-03-21 22:54:00,25.5,16.4,29.73,NNW,337,5.8,-999.0,68,-99.99,,,0.06,Acu-Link.com,2013-03-22 02:54:00,
2013-03-21 23:09:00,25.5,16.4,29.73,NNW,337,8.3,-999.0,68,-99.99,,,0.06,Acu-Link.com,2013-03-22 03:09:00,
2013-03-21 23:24:00,25.2,16.1,29.72,NW,315,8.3,-999.0,68,-99.99,,,0.06,Acu-Link.com,2013-03-22 03:24:00,
2013-03-21 23:39:00,25.0,16.3,29.72,NNW,337,9.4,-999.0,69,-99.99,,,0.06,Acu-Link.com,2013-03-22 03:39:00,
2013-03-21 23:54:00,25.0,16.3,29.71,NW,315,9.4,-999.0,69,-99.99,,,0.06,Acu-Link.com,2013-03-22 03:54:00,